Location: El Cambur
(10.2851°N, 67.4340°W)
Time: 04:38:41
(UTC+00:00)

Meteor 1-31 Rocket - Pass Details

Date: 13 June 2024
Orbit: 494 x 513 km, 97.7° (Epoch: 21 July)

Event Time Altitude Azimuth Distance (km) Brightness Sun altitude
Rises 23:03:05 0° 179° (S) 2,591 6.0 -3.4°
Reaches altitude 10° 23:05:13 10° 186° (S) 1,703 5.1 -3.9°
Maximum altitude 23:08:44 45° 259° (W) 689 3.9 -4.7°
Drops below altitude 10° 23:12:14 10° 333° (NNW) 1,691 6.2 -5.4°
Sets 23:14:21 0° 339° (NNW) 2,570 7.0 -5.9°
